STARLINK-5748, 55604

Orbit data source: Space-Track

STARLINK-5748, 55604 is a payload satellite owned by SpaceX/Seattle (US) in LEO that was launched on Sun, 12 Feb 2023 UTC via an FALCON 9 launch vehicle from the Air Force Eastern Test Range (AFETR). Payload-class satellites include a variety of spacecraft equipped with specific instruments for various scientific and technological missions. These include communications satellites like Starlink; space stations such as the ISS; scientific satellites like the Hubble; Earth observation satellites from companies like Planet Labs, Umbra, and HawkEye 360; GPS; miniature CubeSats for education and research; and military/defense satellites.

Loading next visibility...
Identifier
55604, 2023-020AM
Orbit
LEO
Country
Flag of USUS
Related business
Manufacturer
SpaceX/Seattle
Mission
Operational Commercial Communications
Bus & Motor
STARLINK, Unknown motor
Mass
305 kg wet, ~290 kg dry
Launch date (UTC)
2023-02-12 (3 years ago)
Launch vehicle
FALCON 9
Launch site
Air Force Eastern Test Range (AFETR)
Object type
Payload
Rocket body
Debris
Shape & HBR
Box + 1 Pan, 10.1 m
Radar Cross Section
13.562 m², Large (>1 m²)

Expand to show TLE details & history
Last TLE update: 16 hours ago

TLE from 16 hours ago
0 STARLINK-5748
1 55604U 23020AM  25340.51087414 -.00000174  00000-0  21706-5 0  9995
2 55604  43.0022 124.8898 0001360 273.0781  86.9906 15.02528903155207
Epoch: 2025-12-06T12:15Z
TLE epoch observation values (Epoch: 2025-12-06T12:15:39.525Z)
Latitude
-0.00001°
Longitude
-134.56246°
Altitude
558.83 km
Speed
7.584 km/s
True Right ascension
08h 19m 33s
True Declination
0° 00' 00"
Sunlit
Object was in full shadow at epoch
Visualization orbit readout
Latitude
Unknown
Longitude
Unknown
Altitude
Unknown
Speed
Unknown
Apparent Right ascension
Unknown
Apparent Declination
Unknown
Sunlit
N/A
Visualization observer readout
Local Sidereal Time
01:57:14
Azimuth
Unknown
Elevation
Unknown
Doppler factor
Unknown
Orbital elements
Apogee altitude
561.969 km
Perigee altitude
560.081 km
Semi-major axis
6,939.162 km
Eccentricity
0.00014
Inclination
43.0022°
RAAN
124.8898°
Arg. of periapsis
273.0781°
True anomaly
87.00616°
Mean anomaly
86.9906°
Eccentric anomaly
86.99838°
Mean motion
3.75476 °/min
Orbital period
95.88 mins
BSTAR
0.0000021706
Loading maneuver chart data...
Computing Atmospheric mass density...
Loading historical data...
Loading historical data...
Loading historical data...
Loading historical data...
Loading historical data...
Loading historical data...
Loading historical data...

Documentation

Showing up to 5 results
|